Iliamna, AK

2:04 PM AKDT on April 29, 2017 (GMT -0800)
Iliamna

Weather History for PAIL - September, 2012

Change the Weather History Date:

Saturday, September 22, 2012

  Actual Average Record
Temperature  
Mean Temperature 52 °F -  
Max Temperature 55 °F 52 °F 62 °F (1951)
Min Temperature 48 °F 39 °F 28 °F (1970)
Degree Days  
Heating Degree Days 14    
Growing Degree Days 2 (Base 50)    
Moisture  
Dew Point 49 °F    
Average Humidity 85    
Maximum Humidity 97    
Minimum Humidity 70    
Precipitation  
Precipitation 0.16 in - - ()
Sea Level Pressure  
Sea Level Pressure 29.27 in    
Wind  
Wind Speed 13 mph (East)    
Max Wind Speed 23 mph    
Max Gust Speed 34 mph    
Visibility 10 miles    
Events Rain    
Averages and records for this station are not official NWS values.
T = Trace of Precipitation, MM = Missing Value Source: NWS Daily Summary

Daily Weather History Graph

Daily Weather History Graph

Search for Another Location

Airport or City:

Trip Planner

Search our weather history database for the weather conditions in past years. The results will help you decide how hot, cold, wet, or windy it might be!

Date:

Astronomy

Sep. 22, 2012 Rise Set
Actual Time 8:05 AM AKDT 8:17 PM AKDT
Civil Twilight 7:24 AM AKDT 8:58 PM AKDT
Nautical Twilight 6:34 AM AKDT 9:47 PM AKDT
Astronomical Twilight 5:40 AM AKDT 10:41 PM AKDT
Moon 5:04 PM AKDT (9/22) No Moon Set
Length of Visible Light 13h 33m
Length of Day
12h 11m
Waxing Crescent, 50% of the Moon is Illuminated
Sep 22
Waxing Crescent
Sep 29
Full
Oct 7
Last Quarter
Oct 15
New
Oct 21
First Quarter

Hourly Weather History & Observations

Time (AKDT) Temp. Dew Point Humidity Pressure Visibility Wind Dir Wind Speed Gust Speed Precip Events Conditions
12:53 AM 53.1 °F 51.1 °F 93% 29.34 in 6.0 mi East 15.0 mph - 0.14 in Rain Heavy Rain
1:53 AM 53.1 °F 51.1 °F 93% 29.32 in 9.0 mi East 13.8 mph 21.9 mph 0.14 in Rain Rain
2:53 AM 52.0 °F 51.1 °F 97% 29.31 in 9.0 mi ENE 12.7 mph - 0.10 in Rain Rain
3:53 AM 52.0 °F 51.1 °F 97% 29.28 in 10.0 mi East 8.1 mph - 0.08 in Rain Light Rain
4:53 AM 52.0 °F 50.0 °F 93% 29.26 in 10.0 mi SE 3.5 mph - 0.04 in Rain Light Rain
5:53 AM 52.0 °F 50.0 °F 93% 29.22 in 10.0 mi Calm Calm - 0.06 in Rain Light Rain
6:53 AM 52.0 °F 50.0 °F 93% 29.21 in 10.0 mi ENE 12.7 mph - 0.01 in Rain Light Rain
7:53 AM 53.1 °F 50.0 °F 89% 29.20 in 10.0 mi East 16.1 mph 21.9 mph 0.02 in   Overcast
8:53 AM 53.1 °F 48.9 °F 86% 29.20 in 10.0 mi East 13.8 mph 20.7 mph 0.01 in Rain Light Rain
9:53 AM 53.1 °F 48.9 °F 86% 29.21 in 10.0 mi East 11.5 mph - 0.00 in   Overcast
10:53 AM 52.0 °F 48.9 °F 89% 29.21 in 10.0 mi East 11.5 mph - 0.00 in Rain Light Rain
11:53 AM 52.0 °F 48.9 °F 89% 29.21 in 10.0 mi East 15.0 mph 23.0 mph 0.01 in   Overcast
12:53 PM 55.0 °F 48.9 °F 80% 29.23 in 10.0 mi East 17.3 mph 25.3 mph 0.00 in   Overcast
1:44 PM 53.6 °F 48.2 °F 82% 29.23 in 10.0 mi East 20.7 mph 29.9 mph N/A   Overcast
1:53 PM 54.0 °F 48.0 °F 80% 29.25 in 10.0 mi East 23.0 mph 34.5 mph N/A   Overcast
2:53 PM 53.1 °F 48.9 °F 86% 29.27 in 10.0 mi East 16.1 mph 24.2 mph N/A   Overcast
3:12 PM 53.6 °F 48.2 °F 82% 29.27 in 10.0 mi East 17.3 mph 24.2 mph N/A   Overcast
3:53 PM 55.9 °F 48.9 °F 77% 29.26 in 10.0 mi East 20.7 mph 31.1 mph N/A   Clear
4:53 PM 55.0 °F 46.9 °F 74% 29.28 in 10.0 mi East 20.7 mph 28.8 mph N/A   Partly Cloudy
5:53 PM 54.0 °F 46.0 °F 75% 29.29 in 10.0 mi ESE 19.6 mph 27.6 mph N/A   Clear
6:53 PM 54.0 °F 46.0 °F 75% 29.29 in 10.0 mi East 18.4 mph 29.9 mph N/A   Clear
7:53 PM 53.1 °F 46.0 °F 77% 29.31 in 10.0 mi East 10.4 mph - N/A   Partly Cloudy
8:53 PM 51.1 °F 46.0 °F 83% 29.30 in 10.0 mi ESE 8.1 mph - N/A   Clear
9:53 PM 51.1 °F 46.9 °F 86% 29.32 in 10.0 mi Calm Calm - N/A   Overcast
10:53 PM 50.0 °F 46.9 °F 89% 29.31 in 10.0 mi West 4.6 mph - N/A   Mostly Cloudy
11:53 PM 48.9 °F 46.9 °F 93% 29.31 in 10.0 mi West 5.8 mph - 0.00 in Rain Light Rain